sat.trackr.live / text

‹ back to catalog

HYPERFIELD-1B

NORAD 64552 · 2025-135AA

PAYLOAD ACTIVE UNKNOWN

§ Identity

Operator
Country
FIN
Launch date
2025-06-23
Launch site
AFWTR
Launch vehicle
Mass (kg)
RCS (m²)

External: N2YO · Heavens-Above · Gunter

§ Orbital elements

Epoch: 2026-09-21T22:15:55.878048Z

Period
94.55 min
Inclination
97.4755°
Eccentricity
0.0001137
Mean motion
15.22996841 rev/d
Perigee alt
496.0 km
Apogee alt
497.6 km
Semi-major
6,874.9 km
B*
1.2691e-4
RAAN
19.6963°
Arg perigee
53.5898°
Mean anomaly
306.5444°
Rev number
6,960

§ Raw data

HYPERFIELD-1B1 64552U 25135AA  26264.92773007  .00002912  00000+0  12691-3 0  99982 64552  97.4755  19.6963 0001137  53.5898 306.5444 15.22996841 69609

JSON: /api/v1/satellites/64552 · /tle

For live sub-satellite position, see the globe view (requires WebGL).

§ Visibility from observer

Set your observer location to see the next 7 days of passes ≥ 10°. The values pass through the URL so the page stays shareable.

No JS? Fill the form by hand. The geolocation button needs JavaScript.

§ Radio — SatNOGS DB

ModeDescriptionDownlinkUplink
FM Mode S - Unknown modulation 2.248 GHz
FM Mode X - Transmitter 8.130 GHz
BPSK S-band telemetry 2.245 GHz

3 transmitters · refreshed weekly from db.satnogs.org